If you wish to contribute or participate in the discussions about articles you are invited to join SKYbrary as a registered user

 Actions

Florø

From SKYbrary Wiki

ENFL
Airport
ICAO: ENFL
Summary
Name Florø
Region Europe
Territory Norway NO.gif
Location Florø, Sogn og Fjordane
Serving
Coordinates 61° 34' 59.19" N, 5° 1' 20.78" E
Runways
Designator Length Width Surface ROPS
7/25 1199 m3,933.727 ft <br /> 30 m98.425 ft <br /> ASP /


METAR
Observation ENFL 020120Z AUTO 21012KT 2100NDV -DZ OVC006/// 06/05 Q1031
Station Floro
Date/Time 02 March 2021 01:20:00
Wind direction 210°
Wind speed 12 kts
Lowest cloud amount overcast
Temperature 6°C
Dew point 5°C
Humidity 93%
QNH 1031 hPa
Weather condition n/a

BS
Tag(s) Non Avian Wildlife Hazards to Aircraft
WX
Tag(s) Low Level Turbulence

Florø Airport

ICAO: ENFL IATA: FRO

Description

Airport serving the city of Florø, western Norway. The airport also has a heliport, used to transport personnel to oil platforms in the North Sea.

Climatology

Temperate Marine climate/Oceanic climate (Köppen climate classification Cfb). Moderately cool summer and comparatively warm winter with a temperature range of only 14°C57.2 °F <br />287.15 K <br />516.87 °R <br />.

Maps

Terrain

Loading map...

Airport Layout

Loading map...



Accidents & Serious Incidents at or in vicinity of ENFL

None on SKYbrary